Istanbul, Turkey

7:11 PM EET on February 11, 2016 (GMT +0200)
Istanbul

Weather History for 17060 - November, 2012

Change the Weather History Date:

Monday, November 5, 2012

  Actual Average Record
Temperature  
Mean Temperature 66 °F -  
Max Temperature 70 °F 56 °F - ()
Min Temperature 61 °F 46 °F - ()
Growing Degree Days 16 (Base 50)    
Moisture  
Dew Point 59 °F    
Average Humidity 77    
Maximum Humidity 100    
Minimum Humidity 48    
Precipitation  
Precipitation 0.00 in - - ()
Sea Level Pressure  
Sea Level Pressure 29.95 in    
Wind  
Wind Speed 7 mph ()    
Max Wind Speed 18 mph    
Max Gust Speed -    
Visibility 5.1 miles    
Events      
T = Trace of Precipitation, MM = Missing Value Source: Averaged Metar Reports

Daily Weather History Graph

Daily Weather History Graph

Search for Another Location

Airport or City:

Trip Planner

Search our weather history database for the weather conditions in past years. The results will help you decide how hot, cold, wet, or windy it might be!

Date:

Astronomy

Nov. 05, 2012 Rise Set
Actual Time 6:40 AM EET 4:55 PM EET
Civil Twilight 6:11 AM EET 5:24 PM EET
Nautical Twilight 5:38 AM EET 5:57 PM EET
Astronomical Twilight 5:06 AM EET 6:29 PM EET
Moon 10:13 PM EET (11/5) 11:48 AM EET (11/5)
Length of Visible Light 11h 12m
Length of Day
10h 15m
Waning Gibbous, 66% of the Moon is Illuminated
Nov 5
Waning Gibbous
Nov 7
Last Quarter
Nov 14
New
Nov 20
First Quarter
Nov 28
Full

Hourly Weather History & Observations

Time (EET) Temp. Dew Point Humidity Pressure Visibility Wind Dir Wind Speed Gust Speed Precip Events Conditions
12:20 AM 62.6 °F 62.6 °F 100% 30.01 in 3.7 mi WSW 3.5 mph - N/A   Unknown
12:50 AM 64.4 °F 62.6 °F 94% 30.01 in 3.7 mi WSW 4.6 mph - N/A   Unknown
1:20 AM 64.4 °F 62.6 °F 94% 30.01 in 3.7 mi West 4.6 mph - N/A   Unknown
1:50 AM 64.4 °F 62.6 °F 94% 30.01 in 3.7 mi West 3.5 mph - N/A   Unknown
2:00 AM 64 °F 62 °F 90% 30.02 in 4 mi West 3.5 mph - -   Mist
2:20 AM 64.4 °F 62.6 °F 94% 30.01 in 3.7 mi WSW 3.5 mph - N/A   Unknown
2:50 AM 62.6 °F 62.6 °F 100% 30.01 in 3.7 mi WSW 3.5 mph - N/A   Unknown
3:20 AM 64.4 °F 62.6 °F 94% 30.01 in 3.7 mi WSW 3.5 mph - N/A   Unknown
3:50 AM 64.4 °F 62.6 °F 94% 30.01 in 3.7 mi WSW 4.6 mph - N/A   Unknown
4:20 AM 62.6 °F 62.6 °F 100% 29.98 in 3.7 mi WSW 4.6 mph - N/A   Unknown
4:50 AM 62.6 °F 60.8 °F 94% 29.98 in 3.7 mi WSW 2.3 mph - N/A   Partly Cloudy
5:20 AM 62.6 °F 60.8 °F 94% 30.01 in 3.7 mi WSW 2.3 mph - N/A   Partly Cloudy
5:50 AM 62.6 °F 62.6 °F 100% 30.01 in 3.7 mi SW 3.5 mph - N/A   Scattered Clouds
6:20 AM 64.4 °F 60.8 °F 88% 30.01 in 3.7 mi SW 5.8 mph - N/A   Scattered Clouds
6:50 AM 64.4 °F 60.8 °F 88% 30.01 in - SW 5.8 mph - N/A   Scattered Clouds
7:20 AM 64.4 °F 60.8 °F 88% 30.01 in - SW 6.9 mph - N/A   Scattered Clouds
7:50 AM 64.4 °F 60.8 °F 88% 30.01 in 3.7 mi SSW 5.8 mph - N/A   Scattered Clouds
8:00 AM 65 °F 61 °F 81% 30.01 in 4 mi SSW 5.8 mph - -   Mist
8:20 AM 66.2 °F 59.0 °F 78% 30.01 in 4.3 mi SSW 5.8 mph - N/A   Scattered Clouds
8:50 AM 66.2 °F 59.0 °F 78% 30.01 in 5.0 mi SW 8.1 mph - N/A   Scattered Clouds
9:20 AM 66.2 °F 57.2 °F 73% 30.01 in 6.2 mi SSW 10.4 mph - N/A   Scattered Clouds
9:50 AM 68.0 °F 57.2 °F 68% 30.01 in 6.2 mi SW 10.4 mph - N/A   Partly Cloudy
10:20 AM 68.0 °F 57.2 °F 68% 30.01 in 6.2 mi SSW 10.4 mph - N/A   Partly Cloudy
10:50 AM 68.0 °F 55.4 °F 64% 29.98 in 6.2 mi SSW 12.7 mph - N/A   Partly Cloudy
11:20 AM 69.8 °F 57.2 °F 64% 29.98 in 6.2 mi SSW 11.5 mph - N/A   Partly Cloudy
11:50 AM 68.0 °F 57.2 °F 68% 29.98 in 6.2 mi SSW 11.5 mph - N/A   Partly Cloudy
12:20 PM 69.8 °F 57.2 °F 64% 29.95 in 6.2 mi SW 10.4 mph - N/A   Partly Cloudy
12:50 PM 69.8 °F 55.4 °F 60% 29.95 in 6.2 mi SW 11.5 mph - N/A   Partly Cloudy
1:20 PM 69.8 °F 55.4 °F 60% 29.95 in 6.2 mi SSW 13.8 mph - N/A   Partly Cloudy
1:50 PM 69.8 °F 55.4 °F 60% 29.92 in 6.2 mi SW 12.7 mph - N/A   Partly Cloudy
2:00 PM 70 °F 55 °F 48% 29.94 in 6 mi SW 12.7 mph - -   Scattered Clouds
2:20 PM 69.8 °F 57.2 °F 64% 29.92 in 6.2 mi SW 11.5 mph - N/A   Partly Cloudy
2:50 PM 69.8 °F 57.2 °F 64% 29.92 in 6.2 mi SSW 11.5 mph - N/A   Partly Cloudy
3:20 PM 69.8 °F 57.2 °F 64% 29.92 in 6.2 mi SSW 9.2 mph - N/A   Partly Cloudy
3:50 PM 69.8 °F 57.2 °F 64% 29.92 in 6.2 mi SSW 10.4 mph - N/A   Partly Cloudy
4:20 PM 69.8 °F 57.2 °F 64% 29.92 in 6.2 mi SSW 10.4 mph - N/A   Partly Cloudy
4:50 PM 68.0 °F 57.2 °F 68% 29.92 in 6.2 mi SSW 10.4 mph - N/A   Partly Cloudy
5:20 PM 68.0 °F 57.2 °F 68% 29.89 in 6.2 mi SSW 10.4 mph - N/A   Partly Cloudy
5:50 PM 68.0 °F 59.0 °F 73% 29.92 in 6.2 mi SSW 10.4 mph - N/A   Partly Cloudy
6:20 PM 66.2 °F 59.0 °F 78% 29.89 in 6.2 mi SW 9.2 mph - N/A   Partly Cloudy
6:50 PM 68.0 °F 59.0 °F 73% 29.89 in 6.2 mi SSW 9.2 mph - N/A   Partly Cloudy
7:20 PM 68.0 °F 57.2 °F 68% 29.89 in - SSW 10.4 mph - N/A   Clear
7:50 PM 68.0 °F 57.2 °F 68% 29.89 in - SW 10.4 mph - N/A   Clear
8:00 PM 67 °F 57 °F 63% 29.89 in 6 mi SW 10.4 mph - -  
8:20 PM 68.0 °F 57.2 °F 68% 29.89 in - SW 9.2 mph - N/A   Clear
8:50 PM 68.0 °F 59.0 °F 73% 29.89 in - SW 11.5 mph - N/A   Clear
9:20 PM 68.0 °F 57.2 °F 68% 29.89 in - SW 15.0 mph - N/A   Clear
9:50 PM 66.2 °F 59.0 °F 78% 29.89 in - SSW 13.8 mph - N/A   Clear
10:20 PM 66.2 °F 59.0 °F 78% 29.89 in - SSW 12.7 mph - N/A   Clear
10:50 PM 66.2 °F 57.2 °F 73% 29.86 in - SW 13.8 mph - N/A   Clear
11:20 PM 66.2 °F 57.2 °F 73% 29.86 in - SW 18.4 mph - N/A   Clear
11:50 PM 66.2 °F 59.0 °F 78% 29.86 in - SSW 13.8 mph - N/A   Clear